Location: Unspecified
(34.0006°N, 0.0000°E)
Time: 03:49:44
(UTC+00:00)

OBJECT E - Visible Passes

Search period start: 04 April 2026 00:00
Search period end: 14 April 2026 00:00
Orbit: 936 x 1163 km, 63.5° (Epoch: 29 March)

Date Brightness Start Highest point End Pass type
(mag) Time Alt. Az. Time Alt. Az. Time Alt. Az.
5 Apr ? 00:04:58 13° NNW 00:04:58 13° NNW 00:06:08 10° N visible
5 Apr ? 23:04:49 15° N 23:04:49 15° N 23:06:06 10° NNE visible
6 Apr ? 04:38:05 10° NNE 04:40:33 12° NE 04:43:02 10° NE visible
6 Apr ? 22:04:28 14° NNE 22:04:28 14° NNE 22:05:23 10° NNE visible
6 Apr ? 23:50:34 12° NNW 23:50:34 12° NNW 23:52:30 10° NNW visible
7 Apr ? 21:03:45 12° NE 21:03:45 12° NE 21:04:06 10° NE visible
7 Apr ? 22:49:50 21° NNW 22:49:50 21° NNW 22:53:00 10° N visible
8 Apr ? 04:24:20 10° N 04:28:07 15° NE 04:31:56 10° ENE visible
8 Apr?20:02:20NE20:02:20NE19:50:10Svisible
8 Apr ? 21:48:18 35° N 21:48:18 35° N 21:52:26 10° NNE visible
9 Apr ? 05:11:08 10° NNW 05:17:33 34° NE 05:24:06 10° ESE visible
9 Apr ? 20:38:37 10° SSW 20:44:50 78° ESE 20:51:22 10° NNE visible
9 Apr ? 22:30:47 10° W 22:35:12 19° NW 22:39:47 10° N visible
10 Apr ? 04:10:56 10° N 04:15:37 18° NE 04:20:23 10° E visible
10 Apr ? 19:38:27 10° S 19:43:55 33° ESE 19:49:35 10° NE visible
10 Apr ? 21:27:35 10° WSW 21:33:22 38° NW 21:39:28 10° NNE visible
11 Apr ? 04:58:06 10° NNW 05:04:51 42° NE 05:11:46 10° ESE visible
11 Apr ? 20:25:45 10° SSW 20:31:59 81° WNW 20:38:32 10° NNE visible
11 Apr ? 22:19:02 10° WNW 22:22:41 15° NW 22:26:26 10° N visible
12 Apr ? 03:57:40 10° N 04:03:04 22° NE 04:08:34 10° E visible
12 Apr ? 19:25:07 10° S 19:30:57 44° ESE 19:37:03 10° NE visible
12 Apr ? 21:15:15 10° WSW 21:20:42 30° NW 21:26:24 10° NNE visible
13 Apr ? 02:58:23 10° NNE 03:00:50 12° NE 03:03:19 10° NE visible
13 Apr ? 04:45:08 10° NNW 04:52:08 53° NE 04:59:18 10° SE visible
13 Apr ? 20:12:59 10° SW 20:19:09 63° WNW 20:25:40 10° NNE visible
13 Apr ? 22:07:40 10° WNW 22:10:12 12° NW 22:12:48 10° NNW visible
